Preview of NWS' New Version of Forecast
This preview is not operational and should not be used for support decisions.
Latest weather observations around

Barre / Montpelier, Knapp State Airport (KMPV)

Using English Units (Switch to International System of Units)
Date/ Time (EDT) Wind (mph) Vis. (mi) Weather Sky Cond. Temp (°F) Rel. Humidity Wind Chill (°F) Heat Index (°F) Pressure Precip. (in)
Air Dwpt 6 hour Altimeter (inHg) Sea level (inHg) 1 hr 3 hr 6 hr
Max Min
Apr 22 15:51 N 9 10 Mostly Clear FEW060 66        %       30.13      
Apr 22 14:51 N 10 10 Clear CLR 66        %       30.14      
Apr 22 13:51 N 9 10 Mostly Cloudy BKN055 67        %       30.15      
Apr 22 12:51 N 8 10 Mostly Cloudy BKN050 62 47     58%       30.18      
Apr 22 11:51 NNE 11 10 Clear CLR 60 47     62%       30.21      
Apr 22 10:51 N 9 10 Clear CLR 58 48     70%       30.22      
Apr 22 09:51 N 7 10 Cloudy OVC090 54 49     83%       30.24      
Apr 22 08:51 NNW 3 10 Cloudy FEW060 OVC085 50 47     89%       30.24      
Apr 22 07:51 NW 8 10 Mostly Cloudy BKN070 48 45     89% 44     30.23      
Apr 22 06:51 Calm 10 Cloudy OVC090 47 46     97%       30.21      
Apr 22 06:40 Calm 3 Fog/Mist OVC090 47 45     93%              
Apr 22 06:30 Calm 1.75 Fog/Mist OVC090 46 45     96%              
Apr 22 05:51 Calm 7 Cloudy FEW070 OVC090 47 46     97%       30.2      
Apr 22 04:51 Calm 9 Cloudy FEW008 OVC080 47 46     97%       30.2      
Apr 22 04:24 Calm 9 Cloudy BKN008 OVC075 48 46     93%              
Apr 22 04:06 Calm 5 Fog/Mist SCT006 OVC075 46 45     96%              
Apr 22 03:57 Calm 3 Fog/Mist BKN006 OVC075 47 46     97%              
Apr 22 03:54 Calm 1.75 Fog/Mist SCT006 OVC075 47 46     97%              
Apr 22 03:51 Calm 1 Fog/Mist SCT006 OVC075 47 45     93%       30.19      
Apr 22 03:47 Calm 0.75 Fog/Mist FEW006 OVC075 46 45     93%              
Apr 22 03:44 S 3 1 Fog/Mist BKN075 47 45     93% 46            
Apr 22 03:38 Calm 1.5 Fog/Mist BKN075 48 46     93%              
Apr 22 03:32 Calm 1 Fog/Mist OVC070 47 46     97%              
Apr 22 03:17 Calm 0.75 Fog/Mist BKN070 47 45     93%              
Apr 22 03:09 Calm 1 Fog/Mist FEW003 SCT065 48 46     93%              
Apr 22 03:05 Calm 1.75 Fog/Mist FEW003 FEW065 48 47     96%              
Apr 22 02:51 Calm 6 Fog/Mist SCT001 49 47     93%       30.18      
Apr 22 02:16 NNW 3 8 Mostly Cloudy BKN001 49 48     97% 48            
Apr 22 02:08 NNW 6 2 Fog/Mist OVC001 50 48     93%              
Apr 22 02:06 NNW 6 1.25 Fog/Mist OVC001 50 48     93%              
Apr 22 01:51 WNW 3 0.5 Fog VV001 50 49     96%       30.17     0
Apr 22 01:04 NNW 5 0.25 Fog BKN001 OVC080 51 50     96%              
Apr 22 00:57 NW 3 1 Fog/Mist BKN001 OVC085 51 49     92%              
Apr 22 00:54 NW 5 1.5 Fog/Mist BKN001 OVC085 50 49     96%              
Apr 22 00:51 WNW 3 2 Fog/Mist SCT001 OVC080 50 49     96%       30.17      
Apr 22 00:49 NW 3 2.5 Fog/Mist SCT001 BKN080 50 48     94%              
Apr 21 23:51 Calm 10 Cloudy OVC065 51 49     92%       30.17      
Apr 21 22:51 Calm 10 Cloudy OVC048 52 50     93%       30.17 0 0  
Apr 21 21:51 Calm 9 Light Rain BKN038 OVC050 53 51     93%       30.17 0    
Apr 21 21:29 Calm 9 Light Rain FEW025 SCT030 OVC038 54 51     90%         0    
Apr 21 20:58 N 6 10 Light Rain FEW015 BKN029 OVC038 55 50     83%         0    
Apr 21 20:51 N 7 10 Light Rain FEW015 SCT029 OVC039 55 50     83%       30.15 0    
Apr 21 19:51 NW 7 10 Light Rain FEW043 OVC070 57 52     83%       30.09 0   0
Apr 21 18:51 S 8 10 Cloudy OVC090 63 49     60%       30.06      
Apr 21 17:51 SSE 11 10 Mostly Cloudy BKN095 66 49     54%       30.04      
Apr 21 16:51 SSE 15 10 Mostly Clear FEW080 67 48     51%       30.03      
Apr 21 15:51 SSE 9 10 Clear CLR 68 47     47%       30.01      
Apr 21 14:51 S 10 10 Mostly Clear FEW044 68 47     47%       30.01      
Apr 21 13:51 S 11 10 Mostly Cloudy BKN042 67 48     51%       30.01      
Apr 21 12:51 S 11 10 Partly Cloudy SCT040 65 50     58%       30.02      
Apr 21 11:51 S 13 10 Clear CLR 64 50     60%       30.02      
Apr 21 10:51 S 8 10 Clear CLR 60 50     69%       30.01      
Apr 21 09:51 S 9 10 Mostly Clear FEW017 59 51     75%       30.03      
Apr 21 09:17 S 9 10 Mostly Cloudy FEW016 SCT100 BKN120 57 50     77%              
Apr 21 09:10 S 9 10 Mostly Cloudy BKN015 BKN110 57 50     77%              
Apr 21 09:03 S 9 10 Mostly Cloudy SCT015 BKN120 57 49     74%              
Apr 21 08:51 6 10 Mostly Cloudy BKN016 BKN100 57 50     77%       30.02      
Apr 21 08:47 S 5 10 Mostly Cloudy BKN016 BKN100 57 50     77%              
Apr 21 08:26 S 7 10 Cloudy SCT015 OVC100 56 50     80%              
Apr 21 07:51 S 6 10 Mostly Cloudy BKN015 BKN090 56 50     80%       30     0
Apr 21 07:47 5 10 Mostly Cloudy BKN015 55 48     77%              
Apr 21 06:51 SSE 5 10 Clear CLR 52 48     86%       29.99      
Apr 21 05:51 S 10 10 Clear CLR 52 47     83%       29.97      
Apr 21 04:51 S 13 10 Mostly Clear FEW100 53 48     83%       29.94   0  
Apr 21 03:51 SSE 9 10 Mostly Cloudy BKN100 55 50     83%       29.93 0    
Apr 21 02:51 S 14 10 Light Rain FEW070 OVC100 57 50     77%       29.91 0    
Apr 21 01:51 S 11 10 Partly Cloudy SCT100 60 52     75%       29.91     0
Apr 21 00:51 S 14 10 Clear CLR 61 54     78%       29.89      
Apr 20 23:51 SSE 8 10 Mostly Cloudy SCT027 BKN035 62 55     78%       29.88      
Apr 20 22:51 S 18 10 Mostly Clear FEW031 63 57     81%       29.87   0  
Apr 20 21:51   10 Mostly Clear FEW039 63 58     84%       29.86      
Apr 20 21:31   10 Partly Cloudy SCT024 63 58     84%              
Apr 20 20:51 SSE 11 10 Cloudy SCT022 BKN028 OVC036 63 58     84%       29.85 0    
Apr 20 19:51 SSE 9 7 Light Rain BKN021 BKN028 OVC037 63 59     87%       29.86 0   0
Apr 20 18:51 5 10 Cloudy BKN022 BKN030 OVC040 61 58     90%       29.85 0    
Apr 20 17:51 Calm 10 Cloudy BKN017 BKN023 OVC033 55 53     93%       29.85      
Apr 20 17:20 Calm 10 Cloudy FEW002 OVC015 54 52     93%              
Apr 20 17:05 E 3 10 Cloudy FEW003 BKN013 OVC020 54 52     93%              
Apr 20 16:51 Calm 10 Cloudy SCT003 OVC015 53 51     93%       29.85 0 0  
Apr 20 16:44 Calm 8 Light Rain SCT003 BKN013 OVC020 53 51     93%         0    
Apr 20 16:31 Calm 4 Light Rain and Fog/Mist BKN003 BKN020 OVC026 52 50     93%         0    
Apr 20 16:19 E 3 2 Light Rain and Fog/Mist FEW003 BKN027 OVC034 52 51     97%         0    
Apr 20 16:08 Calm 6 Light Rain and Fog/Mist SCT003 OVC027 51 50     96%         0    
Apr 20 15:51 Calm 10 Cloudy OVC003 51 49     92%       29.86 0    
Apr 20 15:34 Calm 10 Cloudy OVC003 50 49     96%         0    
Apr 20 15:22 Calm 10 Cloudy OVC002 50 48     93%         0    
Apr 20 15:10 Calm 10 Light Rain BKN003 OVC032 50 48     93%         0    
Apr 20 14:58 Calm 6 Light Rain and Fog/Mist SCT003 OVC034 49 47     93%         0    
Apr 20 14:51 Calm 3 Light Rain and Fog/Mist BKN033 OVC045 49 47     93%       29.9 0    
Apr 20 14:33 Calm 2.5 Rain and Fog/Mist FEW003 BKN033 OVC043 48 47     96%         0    
Apr 20 14:24 Calm 2.5 Rain and Fog/Mist SCT003 BKN029 OVC047 48 47     96%         0    
Apr 20 14:21 WNW 5 3 Rain and Fog/Mist SCT004 BKN031 OVC049 48 47     96% 46       0    
Apr 20 14:14 Calm 4 Light Rain and Fog/Mist BKN004 BKN040 OVC070 48 46     93%         0    
Apr 20 14:00 Calm 2.5 Rain and Fog/Mist SCT003 BKN035 OVC075 48 47     96%         0    
Apr 20 13:51 Calm 4 Rain and Fog/Mist BKN003 BKN055 OVC070 48 46     93%       29.91 0   0
Apr 20 13:31 Calm 6 Light Rain and Fog/Mist OVC004 47 46     97%         0    
Apr 20 12:51 NNW 5 3 Rain and Fog/Mist OVC005 46 45     96% 44     29.91 0    
Apr 20 12:35 NW 3 4 Rain and Fog/Mist BKN005 BKN015 OVC019 47 45     93% 46       0    
Apr 20 12:07 Calm 7 Light Rain FEW005 OVC015 46 44     93%         0    
Apr 20 11:51 NW 3 3 Rain and Fog/Mist BKN005 OVC015 46 44     93% 45     29.88 0    
Apr 20 11:01 NW 5 10 Cloudy BKN005 OVC016 46 44     93% 44            
Apr 20 10:51 NNW 5 10 Cloudy BKN003 BKN011 OVC016 46 44     93% 44     29.86 0 0  
Apr 20 10:43 NW 5 10 Cloudy SCT003 BKN015 OVC025 46 44     93% 44       0    
Apr 20 09:51 NW 5 10 Cloudy OVC003 47 46     97% 45     29.82      
Apr 20 09:37 NW 3 10 Cloudy OVC003 47 46     97% 46            
Apr 20 08:59 WNW 5 10 Cloudy OVC002 46 45     96% 44            
Apr 20 08:51 NW 5 10 Cloudy OVC003 46 45     96% 44     29.79      
Apr 20 08:42 NW 5 10 Cloudy BKN003 OVC037 47 45     93% 45            
Apr 20 07:51 NW 5 10 Cloudy FEW002 BKN035 OVC045 46 44     93% 44     29.77     0
Apr 20 06:51 Calm 10 Cloudy FEW001 OVC040 47 46     97%       29.74 0    
Apr 20 06:42 Calm 10 Cloudy SCT001 BKN038 OVC047 47 46     97%         0    
Apr 20 06:34 Calm 10 Cloudy BKN001 OVC042 47 45     93%         0    
Apr 20 06:13 Calm 10 Cloudy FEW001 BKN042 OVC050 48 47     96%         0    
Apr 20 05:51 Calm 10 Light Rain BKN037 OVC047 49 47     93%       29.7 0    
Apr 20 05:18 Calm 10 Cloudy SCT001 BKN030 OVC038 48 47     96%              
Apr 20 04:59 NW 8 3 Fog/Mist FEW001 BKN026 OVC033 48 47     96% 44            
Apr 20 04:54 NW 7 1.5 Fog/Mist FEW001 BKN025 OVC044 48 47     96% 45            
Apr 20 04:51 NW 5 1 Fog/Mist FEW001 BKN025 OVC035 48 46     93% 46     29.67 0 0  
Apr 20 04:40 NNW 6 0.75 Fog/Mist FEW008 SCT020 OVC027 48 46     93% 45       0    
Apr 20 04:35 NW 7 1 Fog/Mist FEW011 BKN020 OVC026 49 47     93% 46       0    
Apr 20 04:32 NW 7 1.75 Fog/Mist FEW013 BKN020 OVC033 50 49     96%         0    
Notice The following observation data may not be complete
Apr 20 04:01 SSW 5 3 Rain and Fog/Mist SCT012 BKN021 OVC036          %         0    
Notice The following observation data may not be complete
Apr 20 03:51 SSW 6 2.5 Heavy Rain and Fog/Mist FEW012 BKN021 OVC032          %       29.65 0    
Notice The following observation data may not be complete
Apr 20 03:44 SSW 8 5 Rain and Fog/Mist BKN015 BKN035 OVC060   59      %         0    
Apr 20 02:51 NW 5 8 Light Rain SCT032 BKN042 OVC060 50 49     96%       29.66 0    
Apr 20 02:01 Calm 4 Rain and Fog/Mist SCT013 SCT025 OVC035 51 50     96%         0    
Apr 20 01:51 Calm 5 Light Rain and Fog/Mist FEW007 BKN016 OVC034 51 50     96%       29.67 0   0
Apr 20 01:45 Calm 3 Light Rain and Fog/Mist FEW007 BKN014 OVC034 52 50     94%         0    
Apr 20 01:41 Calm 1.5 Light Rain and Fog/Mist FEW007 BKN014 OVC032 51 50     96%         0    
Apr 20 01:35 Calm 1.25 Light Rain and Fog/Mist BKN012 OVC032 51 50     96%         0    
Apr 20 01:31 NW 3 2.5 Light Rain and Fog/Mist BKN012 BKN037 OVC090 52 51     97%         0    
Apr 20 01:25 Calm 5 Light Rain and Fog/Mist SCT012 BKN040 OVC090 52 51     97%         0    
Apr 20 01:17 Calm 2 Light Rain and Fog/Mist SCT012 BKN033 OVC065 52 51     97%         0    
Apr 20 01:11 Calm 1.25 Rain and Fog/Mist FEW008 SCT012 OVC031 52 50     93%         0    
Apr 20 00:59 NW 5 1 Light Rain and Fog/Mist SCT012 SCT016 OVC033 52 51     97%         0    
Apr 20 00:56 NW 5 1.25 Light Rain and Fog/Mist BKN012 BKN031 OVC042 52 51     97%         0    
Apr 20 00:51 NNW 3 1.75 Light Rain and Fog/Mist FEW010 BKN014 OVC044 53 52     96%       29.69 0    
Apr 20 00:40 Calm 1.75 Rain and Fog/Mist BKN013 OVC042 53 52     96%         0    
Apr 19 23:51 Calm 4 Light Rain and Fog/Mist FEW006 BKN011 OVC017 54 53     97%       29.71 0    
Apr 19 23:48 Calm 3 Light Rain and Fog/Mist BKN009 OVC017 54 52     94%         0    
Apr 19 23:44 WNW 3 2 Light Rain and Fog/Mist FEW004 BKN013 OVC030 53 51     93%         0    
Apr 19 23:37 NNW 7 1.75 Fog/Mist SCT004 BKN017 OVC040 52 51     97%         0    
Apr 19 23:34 NNW 9 2.5 Light Rain and Fog/Mist FEW010 BKN017 OVC044 53 51     93%         0    
Apr 19 22:51 S 8 10 Cloudy FEW050 BKN070 OVC085 61 57     87%       29.72 0 0  
Apr 19 21:51 S 3 7 Light Rain FEW044 BKN075 OVC090 61 57     87%       29.75 0    
Apr 19 20:51 S 5 10 Light Rain FEW060 SCT075 OVC090 63 56     78%       29.75 0    
Apr 19 19:51 SSW 7 10 Light Rain SCT060 BKN080 BKN110 65 56     73%       29.73 0   0
Apr 19 18:51 SSW 8 10 Cloudy FEW045 SCT060 OVC110 68 55     63%       29.71 0    
Apr 19 17:51 S 9 10 Cloudy BKN048 BKN060 OVC070 67 55     66%       29.7 0    
Apr 19 16:51 S 10 10 Cloudy FEW047 BKN075 OVC090 69 55     61%       29.68      
May 15 09:51 W 3 7 Light Rain BKN035 OVC090 63 62     97%       29.79 0    
May 14 20:51 S 6 10 Clear CLR 66 50     56%       29.87      
May 14 11:51 Calm 10 Clear CLR 68 47     47%       29.94      
May 13 21:51 S 10 10 Clear CLR 57 37     47%       30.03      
May 13 16:51 SE 10 10 Clear CLR 69 31     24%       30.04      
May 13 00:51 Calm 10 Clear CLR 40 35     83%       30.19      
May 12 16:51 S 8 10 Clear   60 30     32%       30.09      
May 12 12:51 SSW 7 10 Clear CLR 56 26     31%       30.17      
May 12 08:51 3 10 Clear CLR 44 33     65% 43     30.26      
May 11 14:51 NW 10 10 Clear CLR 51 25     36%       30.1      
May 11 13:51 WNW 17 10 Clear CLR 49 23     36% 43     30.1      
Jun 11 20:51 NW 3 10 Clear CLR 78 62     58%   78   29.92      
Jun 10 21:51 S 6 10 Clear CLR 69 57     65%       29.96      
Jun 10 18:51 SW 10 10 Partly Cloudy SCT100 75 57     54%   75   29.93      
Jun 10 17:51 SW 7 10 Clear CLR 76 56     50%   76   29.93      
Jun 10 05:15 Calm 2 Fog/Mist BKN001 48 48     100%              
Notice The following observation data may not be complete
Jun 10 05:10   10 Partly Cloudy SCT001          %              
Jun 08 20:51 S 10 10 Clear CLR 68 51     55%       29.88      
Jun 07 21:51 Calm 10 Clear CLR 55 48     77%       30.05      
Jun 07 12:51 N 13 10 Clear CLR 68 48     49%       30.03      
Jun 06 11:51 NE 6 6 Light Rain and Fog/Mist BKN006 OVC050 49 49     100% 46     29.92 0    
Jun 05 19:51 SSE 8 10 Cloudy OVC020 54 49     83%       29.91 0   0
Jun 05 16:51 SSE 10 10 Cloudy OVC018 56 52     87%       29.89   0